Simultaneous Nadir Overpasses (SNOs) Predictions

Prediction of SNOs near equator between AQUA and NPP Satellite Orbit:

Table of predicted SNOs near equator for the next 14.0 days since TLE Epoch: 11/27/2021
Index Date (AQUA) Time (AQUA) AQUA Lat,Lon Date (NPP) Time (NPP) NPP Lat,Lon Distance(km) Time Diff (sec)
1 11/27/2021 07:10:16 -29.94, -88.35 11/27/2021 07:00:16 -30.01, -88.68 32.93 600
2 11/27/2021 07:52:10 2.40, 85.58 11/27/2021 07:43:13 2.33, 85.28 34.54 537
3 11/27/2021 08:40:17 2.13,-105.80 11/27/2021 08:32:36 2.23,-106.37 64.99 461
4 11/27/2021 09:28:32 -6.73, 62.81 11/27/2021 09:22:06 -6.88, 61.97 94.38 386
5 11/29/2021 23:19:59 -5.56, 33.17 11/29/2021 23:10:10 -5.56, 33.04 14.84 589
6 11/30/2021 00:08:15 1.02,-158.24 11/29/2021 23:59:41 0.96,-158.64 44.84 514
7 11/30/2021 00:56:22 3.51, 10.38 11/30/2021 00:49:03 3.66, 9.73 75.02 439
8 12/02/2021 15:36:06 -4.26, 149.34 12/02/2021 15:26:39 -4.18, 149.12 25.07 567
9 12/02/2021 16:24:21 -0.34, -42.06 12/02/2021 16:16:09 -0.48, -42.54 55.14 492
10 12/02/2021 17:12:28 4.87, 126.56 12/02/2021 17:05:32 5.04, 125.81 85.12 416
11 12/05/2021 07:10:19 29.99, 91.64 12/05/2021 07:00:19 30.48, 91.19 69.96 600
12 12/05/2021 07:52:11 -2.84, -94.47 12/05/2021 07:43:07 -2.75, -94.78 35.33 544
13 12/05/2021 08:40:27 -1.70, 74.11 12/05/2021 08:32:38 -1.85, 73.54 65.47 469
14 12/05/2021 09:28:33 6.29,-117.25 12/05/2021 09:22:00 6.47,-118.09 95.15 393
15 12/07/2021 23:20:09 5.97,-146.91 12/07/2021 23:10:13 5.95,-147.05 15.27 596
16 12/08/2021 00:08:16 -1.44, 21.71 12/07/2021 23:59:35 -1.33, 21.32 45.77 521
17 12/08/2021 00:56:31 -3.16,-169.69 12/08/2021 00:49:06 -3.27,-170.36 75.75 445
18 12/10/2021 15:36:13 4.59, -30.73 12/10/2021 15:26:40 4.52, -30.95 25.78 573
19 12/10/2021 16:24:19 0.01, 137.91 12/10/2021 16:16:02 0.10, 137.41 56.15 497
20 12/10/2021 17:12:35 -4.54, -53.50 12/10/2021 17:05:33 -4.70, -54.26 86.00 422
